Time,TemperatureF,DewpointF,PressureIn,WindDirection,WindDirectionDegrees,WindSpeedMPH,WindSpeedGustMPH,Humidity,HourlyPrecipIn,Conditions,Clouds,dailyrainin,SolarRadiationWatts/m^2,SoftwareType,DateUTC
2013-02-20 00:01:00,25.0,22.0,-100.00,North,2,1.0,7.0,88,0.00,,,0.08,0.000000,,2013-02-20 07:01:00,
2013-02-20 00:11:00,25.0,22.0,-100.00,North,2,1.0,7.0,88,0.00,,,0.08,0.000000,,2013-02-20 07:11:00,
2013-02-20 00:21:00,25.0,22.0,-100.00,North,2,1.0,7.0,88,0.00,,,0.08,0.000000,,2013-02-20 07:21:00,
2013-02-20 00:31:00,25.0,22.0,-100.00,North,2,1.0,7.0,88,0.00,,,0.08,0.000000,,2013-02-20 07:31:00,
2013-02-20 01:05:00,24.0,20.0,-100.00,NNW,341,3.0,5.0,84,0.00,,,0.08,0.000000,,2013-02-20 08:05:00,
2013-02-20 01:11:00,24.0,20.0,-100.00,NNW,341,3.0,5.0,84,0.00,,,0.08,0.000000,,2013-02-20 08:11:00,
2013-02-20 01:21:00,24.0,20.0,-100.00,NNW,341,3.0,5.0,84,0.00,,,0.08,0.000000,,2013-02-20 08:21:00,
2013-02-20 01:31:00,24.0,20.0,-100.00,NNW,341,3.0,5.0,84,0.00,,,0.08,0.000000,,2013-02-20 08:31:00,
2013-02-20 02:01:00,24.0,20.0,-100.00,North,351,2.0,4.0,86,0.00,,,0.08,0.000000,,2013-02-20 09:01:00,
2013-02-20 02:11:00,24.0,20.0,-100.00,North,351,2.0,4.0,86,0.00,,,0.08,0.000000,,2013-02-20 09:11:00,
2013-02-20 02:21:00,24.0,20.0,-100.00,North,351,2.0,4.0,86,0.00,,,0.08,0.000000,,2013-02-20 09:21:00,
2013-02-20 02:31:00,24.0,20.0,-100.00,North,351,2.0,4.0,86,0.00,,,0.08,0.000000,,2013-02-20 09:31:00,
2013-02-20 03:01:00,24.0,20.0,-100.00,NNW,336,3.0,4.0,84,0.00,,,0.08,0.000000,,2013-02-20 10:01:00,
2013-02-20 03:12:00,24.0,20.0,-100.00,NNW,336,3.0,4.0,84,0.00,,,0.08,0.000000,,2013-02-20 10:12:00,
2013-02-20 03:21:00,24.0,20.0,-100.00,NNW,336,3.0,4.0,84,0.00,,,0.08,0.000000,,2013-02-20 10:21:00,
2013-02-20 03:31:00,24.0,20.0,-100.00,NNW,336,3.0,4.0,84,0.00,,,0.08,0.000000,,2013-02-20 10:31:00,
2013-02-20 04:02:00,23.0,18.0,-100.00,NNW,348,3.0,6.0,81,0.00,,,0.08,0.000000,,2013-02-20 11:02:00,
2013-02-20 04:11:00,23.0,18.0,-100.00,NNW,348,3.0,6.0,81,0.00,,,0.08,0.000000,,2013-02-20 11:11:00,
2013-02-20 04:21:00,23.0,18.0,-100.00,NNW,348,3.0,6.0,81,0.00,,,0.08,0.000000,,2013-02-20 11:21:00,
2013-02-20 04:31:00,23.0,18.0,-100.00,NNW,348,3.0,6.0,81,0.00,,,0.08,0.000000,,2013-02-20 11:31:00,
2013-02-20 05:01:00,22.0,17.0,-100.00,North,353,3.0,6.0,81,0.00,,,-99.99,0.000000,,2013-02-20 12:01:00,
2013-02-20 05:12:00,22.0,17.0,-100.00,North,353,3.0,6.0,81,0.00,,,-99.99,0.000000,,2013-02-20 12:12:00,
2013-02-20 05:21:00,22.0,17.0,-100.00,North,353,3.0,6.0,81,0.00,,,-99.99,0.000000,,2013-02-20 12:21:00,
2013-02-20 05:31:00,22.0,17.0,-100.00,North,353,3.0,6.0,81,0.00,,,-99.99,0.000000,,2013-02-20 12:31:00,
2013-02-20 06:01:00,22.0,17.0,-100.00,NNW,327,2.0,4.0,82,0.00,,,0.08,0.000000,,2013-02-20 13:01:00,
2013-02-20 06:11:00,22.0,17.0,-100.00,NNW,327,2.0,4.0,82,0.00,,,0.08,0.000000,,2013-02-20 13:11:00,
2013-02-20 06:22:00,22.0,17.0,-100.00,NNW,327,2.0,4.0,82,0.00,,,0.08,0.000000,,2013-02-20 13:22:00,
2013-02-20 06:31:00,22.0,17.0,-100.00,NNW,327,2.0,4.0,82,0.00,,,0.08,0.000000,,2013-02-20 13:31:00,
2013-02-20 07:01:00,22.0,16.0,-100.00,North,351,1.0,5.0,79,0.00,,,0.08,0.000000,,2013-02-20 14:01:00,
2013-02-20 07:11:00,22.0,16.0,-100.00,North,351,1.0,5.0,79,0.00,,,0.08,0.000000,,2013-02-20 14:11:00,
2013-02-20 07:21:00,22.0,16.0,-100.00,North,351,1.0,5.0,79,0.00,,,0.08,0.000000,,2013-02-20 14:21:00,
2013-02-20 07:32:00,22.0,16.0,-100.00,North,351,1.0,5.0,79,0.00,,,0.08,0.000000,,2013-02-20 14:32:00,
2013-02-20 08:01:00,21.0,17.0,-100.00,NW,310,3.0,5.0,83,0.00,,,0.08,0.000000,,2013-02-20 15:01:00,
2013-02-20 08:11:00,21.0,17.0,-100.00,NW,310,3.0,5.0,83,0.00,,,0.08,0.000000,,2013-02-20 15:11:00,
2013-02-20 08:22:00,21.0,17.0,-100.00,NW,310,3.0,5.0,83,0.00,,,0.08,0.000000,,2013-02-20 15:22:00,
2013-02-20 08:31:00,21.0,17.0,-100.00,NW,310,3.0,5.0,83,0.00,,,0.08,0.000000,,2013-02-20 15:31:00,
2013-02-20 09:01:00,23.0,18.0,-100.00,NNW,335,3.0,6.0,81,0.00,,,0.08,18.000000,,2013-02-20 16:01:00,
2013-02-20 10:01:00,29.0,20.0,-100.00,NW,307,3.0,7.0,68,-99.99,,,0.08,175.000000,,2013-02-20 17:01:00,
2013-02-20 11:02:00,26.0,19.0,-100.00,West,280,5.0,9.0,74,-99.99,,,0.08,143.000000,,2013-02-20 18:02:00,
2013-02-20 11:11:00,26.0,19.0,-100.00,West,280,5.0,9.0,74,-99.99,,,0.08,143.000000,,2013-02-20 18:11:00,
2013-02-20 11:21:00,26.0,19.0,-100.00,West,280,5.0,9.0,74,-99.99,,,0.08,143.000000,,2013-02-20 18:21:00,
2013-02-20 11:31:00,26.0,19.0,-100.00,West,280,5.0,9.0,74,-99.99,,,0.08,143.000000,,2013-02-20 18:31:00,
2013-02-20 12:01:00,29.0,19.0,-100.00,WNW,291,5.0,13.0,65,0.00,,,0.06,242.000000,,2013-02-20 19:01:00,
2013-02-20 12:11:00,29.0,19.0,-100.00,WNW,291,5.0,13.0,65,0.00,,,0.06,242.000000,,2013-02-20 19:11:00,
2013-02-20 12:21:00,29.0,19.0,-100.00,WNW,291,5.0,13.0,65,0.00,,,0.06,242.000000,,2013-02-20 19:21:00,
2013-02-20 12:31:00,29.0,19.0,-100.00,WNW,291,5.0,13.0,65,0.00,,,0.06,242.000000,,2013-02-20 19:31:00,
2013-02-20 13:01:00,31.0,17.0,-100.00,NW,315,7.0,14.0,55,0.00,,,0.02,363.000000,,2013-02-20 20:01:00,
2013-02-20 13:11:00,31.0,17.0,-100.00,NW,315,7.0,14.0,55,0.00,,,0.02,363.000000,,2013-02-20 20:11:00,
2013-02-20 13:21:00,31.0,17.0,-100.00,NW,315,7.0,14.0,55,0.00,,,0.02,363.000000,,2013-02-20 20:21:00,
2013-02-20 13:31:00,31.0,17.0,-100.00,NW,315,7.0,14.0,55,0.00,,,0.02,363.000000,,2013-02-20 20:31:00,
2013-02-20 13:51:00,34.0,16.0,-100.00,WNW,302,8.0,17.0,48,0.00,,,0.01,441.000000,,2013-02-20 20:51:00,
2013-02-20 14:01:00,34.0,16.0,-100.00,WNW,302,8.0,17.0,48,0.00,,,0.01,441.000000,,2013-02-20 21:01:00,
2013-02-20 14:11:00,34.0,16.0,-100.00,WNW,302,8.0,17.0,48,0.00,,,0.01,441.000000,,2013-02-20 21:11:00,
2013-02-20 14:21:00,34.0,16.0,-100.00,WNW,302,8.0,17.0,48,0.00,,,0.01,441.000000,,2013-02-20 21:21:00,
2013-02-20 14:31:00,34.0,16.0,-100.00,WNW,302,8.0,17.0,48,0.00,,,0.01,441.000000,,2013-02-20 21:31:00,
2013-02-20 14:52:00,34.0,13.0,-100.00,NNW,330,5.0,17.0,41,0.00,,,0.01,644.000000,,2013-02-20 21:52:00,
2013-02-20 15:01:00,34.0,13.0,-100.00,NNW,330,5.0,17.0,41,0.00,,,0.01,644.000000,,2013-02-20 22:01:00,
2013-02-20 15:11:00,34.0,13.0,-100.00,NNW,330,5.0,17.0,41,0.00,,,0.01,644.000000,,2013-02-20 22:11:00,
2013-02-20 15:21:00,34.0,13.0,-100.00,NNW,330,5.0,17.0,41,0.00,,,0.01,644.000000,,2013-02-20 22:21:00,
2013-02-20 15:31:00,34.0,13.0,-100.00,NNW,330,5.0,17.0,41,0.00,,,0.01,644.000000,,2013-02-20 22:31:00,
2013-02-20 16:12:00,33.0,14.0,-100.00,NW,315,4.0,14.0,45,0.00,,,0.01,238.000000,,2013-02-20 23:12:00,
2013-02-20 16:22:00,33.0,14.0,-100.00,NW,315,4.0,14.0,45,0.00,,,0.01,238.000000,,2013-02-20 23:22:00,
2013-02-20 16:31:00,33.0,14.0,-100.00,NW,315,4.0,14.0,45,0.00,,,0.01,238.000000,,2013-02-20 23:31:00,
2013-02-20 17:02:00,31.0,13.0,-100.00,NW,323,3.0,13.0,46,0.00,,,0.00,216.000000,,2013-02-21 00:02:00,
2013-02-20 17:11:00,31.0,13.0,-100.00,NW,323,3.0,13.0,46,0.00,,,0.00,216.000000,,2013-02-21 00:11:00,
2013-02-20 17:21:00,31.0,13.0,-100.00,NW,323,3.0,13.0,46,0.00,,,0.00,216.000000,,2013-02-21 00:21:00,
2013-02-20 17:31:00,31.0,13.0,-100.00,NW,323,3.0,13.0,46,0.00,,,0.00,216.000000,,2013-02-21 00:31:00,
2013-02-20 18:01:00,29.0,11.0,-100.00,NNW,337,2.0,11.0,46,0.00,,,0.00,134.000000,,2013-02-21 01:01:00,
2013-02-20 18:11:00,29.0,11.0,-100.00,NNW,337,2.0,11.0,46,0.00,,,0.00,134.000000,,2013-02-21 01:11:00,
2013-02-20 18:21:00,29.0,11.0,-100.00,NNW,337,2.0,11.0,46,0.00,,,0.00,134.000000,,2013-02-21 01:21:00,
2013-02-20 18:32:00,29.0,11.0,-100.00,NNW,337,2.0,11.0,46,0.00,,,0.00,134.000000,,2013-02-21 01:32:00,
2013-02-20 19:01:00,27.0,13.0,-100.00,WNW,303,3.0,13.0,55,0.00,,,0.00,11.000000,,2013-02-21 02:01:00,
2013-02-20 19:11:00,27.0,13.0,-100.00,WNW,303,3.0,13.0,55,0.00,,,0.00,11.000000,,2013-02-21 02:11:00,
2013-02-20 19:21:00,27.0,13.0,-100.00,WNW,303,3.0,13.0,55,0.00,,,0.00,11.000000,,2013-02-21 02:21:00,
2013-02-20 19:32:00,27.0,13.0,-100.00,WNW,303,3.0,13.0,55,0.00,,,0.00,11.000000,,2013-02-21 02:32:00,
2013-02-20 20:01:00,26.0,13.0,-100.00,NNW,343,3.0,11.0,58,0.00,,,0.00,0.000000,,2013-02-21 03:01:00,
2013-02-20 20:11:00,26.0,13.0,-100.00,NNW,343,3.0,11.0,58,0.00,,,0.00,0.000000,,2013-02-21 03:11:00,
2013-02-20 20:21:00,26.0,13.0,-100.00,NNW,343,3.0,11.0,58,0.00,,,0.00,0.000000,,2013-02-21 03:21:00,
2013-02-20 20:31:00,26.0,13.0,-100.00,NNW,343,3.0,11.0,58,0.00,,,0.00,0.000000,,2013-02-21 03:31:00,
2013-02-20 21:01:00,24.0,11.0,-100.00,NW,304,3.0,11.0,57,0.00,,,0.00,0.000000,,2013-02-21 04:01:00,
2013-02-20 21:11:00,24.0,11.0,-100.00,NW,304,3.0,11.0,57,0.00,,,0.00,0.000000,,2013-02-21 04:11:00,
2013-02-20 21:21:00,24.0,11.0,-100.00,NW,304,3.0,11.0,57,0.00,,,0.00,0.000000,,2013-02-21 04:21:00,
2013-02-20 21:31:00,24.0,11.0,-100.00,NW,304,3.0,11.0,57,0.00,,,0.00,0.000000,,2013-02-21 04:31:00,
2013-02-20 21:52:00,24.0,11.0,-100.00,NW,312,5.0,10.0,58,0.00,,,0.00,0.000000,,2013-02-21 04:52:00,
2013-02-20 22:02:00,24.0,11.0,-100.00,NW,312,5.0,10.0,58,0.00,,,0.00,0.000000,,2013-02-21 05:02:00,
2013-02-20 22:12:00,24.0,11.0,-100.00,NW,312,5.0,10.0,58,0.00,,,0.00,0.000000,,2013-02-21 05:12:00,
2013-02-20 22:22:00,24.0,11.0,-100.00,NW,312,5.0,10.0,58,0.00,,,0.00,0.000000,,2013-02-21 05:22:00,
2013-02-20 22:32:00,24.0,11.0,-100.00,NW,312,5.0,10.0,58,0.00,,,0.00,0.000000,,2013-02-21 05:32:00,
2013-02-20 22:59:00,22.0,11.0,-100.00,WNW,299,4.0,7.0,61,0.00,,,0.00,0.000000,,2013-02-21 05:59:00,
2013-02-20 23:01:00,22.0,11.0,-100.00,WNW,299,4.0,7.0,61,0.00,,,0.00,0.000000,,2013-02-21 06:01:00,
2013-02-20 23:11:00,22.0,11.0,-100.00,WNW,299,4.0,7.0,61,0.00,,,0.00,0.000000,,2013-02-21 06:11:00,
2013-02-20 23:21:00,22.0,11.0,-100.00,WNW,299,4.0,7.0,61,0.00,,,0.00,0.000000,,2013-02-21 06:21:00,
2013-02-20 23:31:00,22.0,11.0,-100.00,WNW,299,4.0,7.0,61,0.00,,,0.00,0.000000,,2013-02-21 06:31:00,